EW0259 Weather Reports


time (UTC)temp
C
wind
direction
speed
KPH
gust
KPH
rain 1hr
cm
rain 24hr
cm
rain mn
cm
humidity
%
barometer
mb
20260506204721 12 148 1.6 3.2 0.00 0.00 0.00 79 1021.9
20260506204309 12 273 1.6 4.8 0.00 0.00 0.00 80 1021.9
20260506203725 12 287 1.6 4.8 0.00 0.00 0.00 81 1022.0
20260506203233 12 15 0.0 3.2 0.00 0.00 0.00 82 1021.9
20260506202753 12 317 1.6 3.2 0.00 0.00 0.00 82 1021.8
20260506202309 12 5 0.0 3.2 0.00 0.00 0.00 83 1021.8
20260506201725 12 20 0.0 3.2 0.00 0.00 0.00 82 1021.7
20260506201233 12 246 0.0 3.2 0.00 0.00 0.00 81 1021.8
20260506200801 12 166 0.0 0.0 0.00 0.00 0.00 84 1021.7
20260506200729 12 166 0.0 0.0 0.00 0.00 0.00 84 1021.7
20260506200257 12 92 0.0 0.0 0.00 0.00 0.00 84 1021.8
20260506200225 12 92 0.0 0.0 0.00 0.00 0.00 84 1021.8
20260506195732 12 355 0.0 3.2 0.00 0.00 0.00 84 1021.8
20260506195259 12 355 0.0 4.8 0.00 0.00 0.00 83 1021.8
20260506195228 12 355 0.0 4.8 0.00 0.00 0.00 83 1021.8
20260506194755 12 279 3.2 4.8 0.00 0.00 0.00 83 1021.8
20260506194232 12 290 1.6 3.2 0.00 0.00 0.00 84 1021.7
20260506193740 12 270 0.0 3.2 0.00 0.00 0.00 85 1021.7
20260506193228 12 261 1.6 3.2 0.00 0.00 0.00 85 1021.6
20260506192739 11 279 1.6 9.7 0.00 0.00 0.00 85 1021.6
20260506192307 11 279 4.8 9.7 0.00 0.00 0.00 84 1021.6
20260506191724 12 296 0.0 6.4 0.00 0.00 0.00 85 1021.6
20260506191232 12 284 1.6 6.4 0.00 0.00 0.00 86 1021.6
20260506190740 12 296 3.2 6.4 0.00 0.00 0.00 85 1021.6
20260506190228 12 274 3.2 9.7 0.00 0.00 0.00 86 1021.6
20260506185755 12 345 1.6 4.8 0.00 0.00 0.00 86 1021.5
20260506185232 12 57 1.6 4.8 0.00 0.00 0.00 87 1021.6
20260506184800 12 230 0.0 9.7 0.00 0.00 0.00 87 1021.6
20260506184236 12 230 3.2 9.7 0.00 0.00 0.00 86 1021.5
20260506183724 12 316 0.0 3.2 0.00 0.00 0.00 87 1021.5
20260506183232 12 345 1.6 3.2 0.00 0.00 0.00 87 1021.5
20260506182723 12 342 1.6 4.8 0.00 0.00 0.00 87 1021.4
20260506182231 12 288 1.6 4.8 0.00 0.00 0.00 88 1021.2
20260506181739 12 292 1.6 4.8 0.00 0.00 0.00 88 1021.2
20260506181227 12 355 0.0 3.2 0.00 0.00 0.00 88 1021.2
20260506180755 12 331 0.0 0.0 0.00 0.00 0.00 89 1021.1
20260506180723 12 331 0.0 0.0 0.00 0.00 0.00 89 1021.1
20260506180231 12 292 0.0 0.0 0.00 0.00 0.00 89 1021.2
20260506175757 12 148 0.0 3.2 0.00 0.00 0.00 90 1021.2
20260506175234 12 290 0.0 3.2 0.00 0.00 0.00 89 1021.1
20260506174721 12 285 0.0 3.2 0.00 0.00 0.00 90 1021.1
20260506174309 12 274 1.6 3.2 0.00 0.00 0.00 90 1021.4
20260506173726 12 42 0.0 0.0 0.00 0.00 0.00 90 1021.3
20260506173234 12 283 0.0 0.0 0.00 0.00 0.00 90 1021.4
20260506172801 11 284 0.0 3.2 0.00 0.00 0.00 90 1021.3
20260506172258 11 228 1.6 3.2 0.00 0.00 0.00 90 1021.4
20260506171755 11 273 1.6 3.2 0.00 0.00 0.00 91 1021.4
20260506171723 11 273 1.6 3.2 0.00 0.00 0.00 91 1021.4
20260506171311 11 298 1.6 4.8 0.00 0.00 0.00 91 1021.3
20260506170728 11 283 0.0 4.8 0.00 0.00 0.00 90 1021.3
20260506170256 11 248 1.6 4.8 0.00 0.00 0.00 90 1021.2
20260506170224 11 248 1.6 4.8 0.00 0.00 0.00 90 1021.2
20260506165730 11 254 1.6 3.2 0.00 0.00 0.00 90 1021.2
20260506165222 11 146 0.0 3.2 0.00 0.00 0.00 91 1021.3
20260506164810 11 355 0.0 3.2 0.00 0.00 0.00 92 1021.2
20260506164306 11 198 0.0 3.2 0.00 0.00 0.00 92 1020.9
20260506163723 11 125 0.0 3.2 0.00 0.00 0.00 93 1020.8
20260506163231 11 97 1.6 3.2 0.00 0.00 0.00 93 1020.6
20260506162738 11 119 0.0 3.2 0.00 0.00 0.00 93 1020.7
20260506162226 11 101 0.0 3.2 0.00 0.00 0.00 93 1020.6
20260506161734 11 97 0.0 3.2 0.00 0.00 0.00 94 1020.6
20260506161221 11 82 0.0 1.6 0.00 0.00 0.00 93 1020.6
20260506160729 11 85 0.0 3.2 0.00 0.00 0.00 93 1020.7
20260506160256 11 107 1.6 3.2 0.00 0.00 0.00 92 1020.8
20260506155812 11 314 0.0 3.2 0.00 0.00 0.00 92 1020.9
20260506155228 11 251 0.0 3.2 0.00 0.00 0.00 92 1020.9
20260506154736 11 258 0.0 0.0 0.00 0.00 0.00 92 1020.9
20260506154227 11 244 0.0 0.0 0.00 0.00 0.00 93 1021.0
20260506153735 11 240 0.0 0.0 0.00 0.00 0.00 93 1020.9
20260506153223 11 240 0.0 1.6 0.00 0.00 0.00 92 1020.7
20260506152810 11 240 0.0 3.2 0.00 0.00 0.00 92 1020.8
20260506152306 11 105 0.0 3.2 0.00 0.00 0.00 92 1020.6
20260506151722 11 113 1.6 3.2 0.00 0.00 0.00 92 1020.5
20260506151230 11 225 0.0 3.2 0.00 0.00 0.00 92 1020.6
20260506150738 11 286 0.0 3.2 0.00 0.00 0.00 91 1020.7
20260506150226 11 216 0.0 3.2 0.00 0.00 0.00 91 1020.7
20260506145733 11 210 0.0 3.2 0.00 0.00 0.00 91 1020.8
20260506145301 11 283 1.6 3.2 0.00 0.00 0.00 91 1020.8
20260506144737 11 204 0.0 4.8 0.00 0.00 0.00 91 1020.9
20260506144228 11 58 0.0 4.8 0.00 0.00 0.00 92 1020.7
20260506143756 11 121 0.0 3.2 0.00 0.00 0.00 92 1020.6
20260506143232 11 118 0.0 3.2 0.00 0.00 0.00 92 1020.5
20260506142739 11 89 1.6 4.8 0.00 0.00 0.00 92 1020.3
20260506142226 11 118 1.6 4.8 0.00 0.00 0.00 92 1020.3
20260506141753 11 121 0.0 3.2 0.00 0.00 0.00 92 1020.4
20260506141722 11 121 0.0 3.2 0.00 0.00 0.00 92 1020.4
20260506141230 11 121 0.0 3.2 0.00 0.00 0.00 92 1020.4
20260506140758 11 161 0.0 3.2 0.00 0.00 0.00 92 1020.6
20260506140234 11 109 0.0 3.2 0.00 0.00 0.00 92 1020.7
20260506135740 11 94 1.6 3.2 0.00 0.00 0.00 92 1020.4
20260506135228 11 66 0.0 3.2 0.00 0.00 0.00 92 1020.4
20260506134736 11 138 0.0 3.2 0.00 0.00 0.00 92 1020.5
20260506134224 11 144 1.6 3.2 0.00 0.00 0.00 92 1020.5
20260506133736 11 92 0.0 3.2 0.00 0.00 0.00 92 1020.3
20260506133224 11 273 0.0 3.2 0.00 0.00 0.00 92 1020.2
20260506132731 11 252 0.0 3.2 0.00 0.00 0.00 91 1020.4
20260506132238 11 94 0.0 3.2 0.00 0.00 0.00 91 1020.3
20260506131806 11 94 0.0 3.2 0.00 0.00 0.00 91 1019.9
20260506131301 11 116 1.6 3.2 0.00 0.00 0.00 92 1020.0
20260506130738 11 94 0.0 3.2 0.00 0.00 0.00 91 1020.0
20260506130305 11 181 0.0 0.0 0.00 0.00 0.00 91 1020.1
20260506125801 11 191 0.0 0.0 0.00 0.00 0.00 91 1020.1
20260506125257 11 191 0.0 0.0 0.00 0.00 0.00 91 1019.9
20260506125225 11 191 0.0 0.0 0.00 0.00 0.00 91 1019.9
20260506124733 11 155 0.0 0.0 0.00 0.00 0.00 91 1019.9
20260506124301 11 155 0.0 0.0 0.00 0.00 0.00 91 1019.9
20260506123737 11 153 0.0 0.0 0.00 0.00 0.00 90 1019.9
20260506123225 11 159 0.0 0.0 0.00 0.00 0.00 90 1019.9
20260506122812 11 159 0.0 0.0 0.00 0.00 0.00 90 1019.7
20260506122228 11 159 0.0 0.0 0.00 0.00 0.00 90 1019.7
20260506121736 11 179 0.0 0.0 0.00 0.00 0.00 90 1019.7
20260506121228 11 179 0.0 0.0 0.00 0.00 0.00 90 1019.7
20260506120736 11 179 0.0 0.0 0.00 0.00 0.00 90 1019.7
20260506120223 11 179 0.0 0.0 0.00 0.00 0.00 89 1019.6
20260506115810 11 301 0.0 3.2 0.00 0.00 0.00 89 1019.5
20260506115738 11 301 0.0 3.2 0.00 0.00 0.00 89 1019.5
20260506115226 11 169 0.0 3.2 0.00 0.00 0.00 89 1019.5
20260506114734 11 71 0.0 3.2 0.00 0.00 0.00 88 1019.5
20260506114222 11 108 0.0 3.2 0.00 0.00 0.00 88 1019.6
20260506113810 11 141 0.0 3.2 0.00 0.00 0.00 87 1019.5
20260506113738 11 141 0.0 3.2 0.00 0.00 0.00 87 1019.5
20260506113306 11 140 0.0 3.2 0.00 0.00 0.00 87 1019.6
20260506113234 11 140 0.0 3.2 0.00 0.00 0.00 87 1019.6
20260506112721 11 140 0.0 0.0 0.00 0.00 0.00 86 1019.6
20260506112229 11 140 0.0 0.0 0.00 0.00 0.00 86 1019.6
20260506111737 11 140 0.0 0.0 0.00 0.00 0.00 86 1019.6
20260506111225 11 140 0.0 1.6 0.00 0.00 0.00 86 1019.6
20260506110737 11 157 0.0 0.0 0.00 0.00 0.00 86 1019.5
20260506110225 11 148 0.0 0.0 0.00 0.00 0.00 86 1019.4
20260506105732 11 177 0.0 0.0 0.00 0.00 0.00 86 1019.4
20260506105240 11 159 0.0 0.0 0.00 0.00 0.00 86 1019.4
20260506104728 11 159 0.0 0.0 0.00 0.00 0.00 86 1019.3
20260506104236 11 157 0.0 0.0 0.00 0.00 0.00 86 1019.3
20260506103724 11 156 0.0 0.0 0.00 0.00 0.00 86 1019.3
20260506103311 12 271 0.0 0.0 0.00 0.00 0.00 86 1019.3
20260506102736 12 275 0.0 0.0 0.00 0.00 0.00 85 1019.3
20260506102224 12 275 0.0 0.0 0.00 0.00 0.00 85 1019.2
20260506101732 12 275 0.0 3.2 0.00 0.00 0.00 85 1019.1
20260506101224 12 275 0.0 1.6 0.00 0.00 0.00 85 1019.1
20260506100732 12 123 0.0 3.2 0.00 0.00 0.00 85 1019.0
20260506100240 12 123 0.0 3.2 0.00 0.00 0.00 85 1018.9
20260506095727 12 322 0.0 3.2 0.00 0.00 0.00 85 1018.8
20260506095235 12 45 1.6 3.2 0.00 0.00 0.00 85 1018.8
20260506094803 12 290 0.0 4.8 0.00 0.00 0.00 84 1018.8
20260506094239 12 260 0.0 4.8 0.00 0.00 0.00 84 1018.8
20260506093727 12 114 1.6 4.8 0.00 0.00 0.00 85 1018.7
20260506093234 12 283 0.0 3.2 0.00 0.00 0.00 85 1018.7
20260506092721 12 283 1.6 3.2 0.00 0.00 0.00 85 1018.7
20260506092309 12 9 0.0 3.2 0.00 0.00 0.00 85 1018.7
20260506091730 12 312 0.0 3.2 0.00 0.00 0.00 86 1018.6
20260506091238 12 274 0.0 3.2 0.00 0.00 0.00 86 1018.6
20260506090806 12 230 0.0 1.6 0.00 0.00 0.00 86 1018.5
20260506090241 12 273 0.0 1.6 0.00 0.00 0.00 86 1018.5
20260506085728 12 194 0.0 1.6 0.00 0.00 0.00 86 1018.4
20260506085253 12 217 1.6 1.6 0.00 0.00 0.00 87 1018.5
20260506084810 12 130 0.0 0.0 0.00 0.00 0.00 87 1018.4
20260506084738 12 130 0.0 0.0 0.00 0.00 0.00 87 1018.4
20260506084226 12 130 0.0 0.0 0.00 0.00 0.00 87 1018.3
20260506083734 12 130 0.0 0.0 0.00 0.00 0.00 87 1018.3
20260506083222 12 130 0.0 0.0 0.00 0.00 0.00 87 1018.2
20260506082729 12 130 0.0 1.6 0.00 0.00 0.00 86 1018.3
20260506082237 12 130 0.0 3.2 0.00 0.00 0.00 87 1018.4
20260506081805 12 130 0.0 3.2 0.00 0.00 0.00 87 1018.4
20260506081301 12 304 0.0 3.2 0.00 0.00 0.00 87 1018.4
20260506080737 12 304 0.0 3.2 0.00 0.00 0.00 87 1018.4
20260506080229 12 260 0.0 3.2 0.00 0.00 0.00 88 1018.3
20260506073240 11 121 0.0 3.2 0.00 0.00 0.00 90 1018.1
20260506072807 11 121 0.0 3.2 0.00 0.00 0.00 90 1018.1
20260506072735 11 121 0.0 3.2 0.00 0.00 0.00 90 1018.1
20260506072305 11 111 0.0 0.0 0.00 0.00 0.00 90 1018.1
20260506071739 11 111 0.0 0.0 0.00 0.00 0.00 90 1018.2
20260506071227 11 111 0.0 0.0 0.00 0.00 0.00 90 1018.1
20260506070734 11 111 0.0 0.0 0.00 0.00 0.00 90 1018.1
20260506070222 11 113 0.0 0.0 0.00 0.00 0.00 90 1018.1
20260506062301 11 196 0.0 0.0 0.00 0.00 0.00 90 1017.6
20260506061737 11 196 0.0 0.0 0.00 0.00 0.00 90 1017.5
20260506061225 11 196 0.0 0.0 0.00 0.00 0.00 90 1017.5
20260506060731 11 196 0.0 0.0 0.00 0.00 0.00 90 1017.4
20260506060239 11 196 0.0 0.0 0.00 0.00 0.00 90 1017.5
20260506051257 12 248 0.0 0.0 0.00 0.00 0.00 88 1017.1
20260506050753 12 248 0.0 0.0 0.00 0.00 0.00 87 1017.1
20260506050310 12 248 0.0 0.0 0.00 0.00 0.00 87 1017.1
20260506044729 12 248 0.0 0.0 0.00 0.00 0.00 86 1017.0
20260506044237 12 248 0.0 0.0 0.00 0.00 0.00 86 1017.0
20260506043804 12 248 0.0 0.0 0.00 0.00 0.00 85 1017.1
20260506043241 13 248 0.0 0.0 0.00 0.00 0.00 85 1017.1
20260506042728 13 248 0.0 0.0 0.00 0.00 0.00 84 1017.0
20260506042236 13 248 0.0 0.0 0.00 0.00 0.00 84 1017.1
20260506041728 13 248 0.0 0.0 0.00 0.00 0.00 83 1017.0
20260506041256 13 248 0.0 0.0 0.00 0.00 0.00 83 1017.0
20260506040733 13 248 0.0 0.0 0.00 0.00 0.00 82 1016.8
20260506040241 13 248 0.0 0.0 0.00 0.00 0.00 82 1016.8
20260506035728 13 248 0.0 0.0 0.00 0.00 0.00 82 1016.8
20260506035236 14 248 0.0 0.0 0.00 0.00 0.00 81 1016.7
20260506034724 14 248 0.0 0.0 0.00 0.00 0.00 81 1016.6
20260506034232 14 248 0.0 0.0 0.00 0.00 0.00 80 1016.5
20260506033740 14 248 0.0 0.0 0.00 0.00 0.00 80 1016.4
20260506033228 15 248 0.0 0.0 0.00 0.00 0.00 79 1016.4
20260506032735 15 248 0.0 0.0 0.00 0.00 0.00 79 1016.4
20260506032226 15 248 0.0 0.0 0.00 0.00 0.00 77 1016.4
20260506031754 15 248 0.0 0.0 0.00 0.00 0.00 77 1016.5
20260506031230 15 248 0.0 0.0 0.00 0.00 0.00 76 1016.4
20260506030738 15 248 0.0 3.2 0.00 0.00 0.00 76 1016.4
20260506030226 15 248 0.0 3.2 0.00 0.00 0.00 75 1016.3
20260506025752 16 248 0.0 1.6 0.00 0.00 0.00 74 1016.2
20260506025229 16 248 0.0 3.2 0.00 0.00 0.00 74 1016.3
20260506024737 16 186 0.0 3.2 0.00 0.00 0.00 72 1016.3
20260506024225 16 186 0.0 3.2 0.00 0.00 0.00 72 1016.1
20260506023753 16 227 0.0 3.2 0.00 0.00 0.00 71 1016.3
20260506023309 17 227 0.0 3.2 0.00 0.00 0.00 70 1016.4
20260506023237 17 227 0.0 3.2 0.00 0.00 0.00 70 1016.4
20260506022724 17 227 0.0 3.2 0.00 0.00 0.00 69 1016.4
20260506022232 17 227 0.0 3.2 0.00 0.00 0.00 68 1016.5
20260506021724 17 303 0.0 3.2 0.00 0.00 0.00 67 1016.4
20260506021308 17 160 0.0 3.2 0.00 0.00 0.00 68 1016.4
20260506021236 17 160 0.0 3.2 0.00 0.00 0.00 68 1016.4
20260506020728 18 209 0.0 3.2 0.00 0.00 0.00 67 1016.4
20260506020236 18 295 0.0 6.4 0.00 0.00 0.00 67 1016.4
20260506015723 18 295 0.0 6.4 0.00 0.00 0.00 66 1016.3
20260506015310 18 355 0.0 0.0 0.00 0.00 0.00 65 1016.2
20260506014727 18 252 0.0 3.2 0.00 0.00 0.00 66 1016.2
20260506014235 18 239 0.0 6.4 0.00 0.00 0.00 66 1016.2
20260506013723 18 327 1.6 6.4 0.00 0.00 0.00 65 1016.3
20260506013231 18 320 1.6 9.7 0.00 0.00 0.00 64 1016.3
20260506012738 18 313 1.6 4.8 0.00 0.00 0.00 64 1016.3
20260506012226 18 218 0.0 4.8 0.00 0.00 0.00 63 1016.3
20260506011738 18 217 1.6 4.8 0.00 0.00 0.00 63 1016.3
20260506011226 18 208 1.6 4.8 0.00 0.00 0.00 63 1016.3
20260506010734 19 289 0.0 3.2 0.00 0.00 0.00 63 1016.4
20260506010222 18 240 1.6 3.2 0.00 0.00 0.00 63 1016.4
20260506005729 18 107 0.0 3.2 0.00 0.00 0.00 64 1016.4
20260506005256 18 355 1.6 6.4 0.00 0.00 0.00 64 1016.4
20260506005225 18 355 1.6 6.4 0.00 0.00 0.00 64 1016.4
20260506004733 18 187 1.6 3.2 0.00 0.00 0.00 65 1016.4
20260506004301 18 163 1.6 4.8 0.00 0.00 0.00 65 1016.4
20260506003738 18 284 1.6 4.8 0.00 0.00 0.00 65 1016.5
20260506003226 18 207 1.6 4.8 0.00 0.00 0.00 64 1016.6
20260506002733 18 273 1.6 4.8 0.00 0.00 0.00 65 1016.6
20260506002301 17 256 0.0 9.7 0.00 0.00 0.00 66 1016.5
20260506002229 17 256 0.0 9.7 0.00 0.00 0.00 66 1016.5
20260506001721 17 288 3.2 9.7 0.00 0.00 0.00 67 1016.5
20260506001229 17 278 3.2 6.4 0.00 0.00 0.00 68 1016.5
20260506000737 17 217 1.6 11.3 0.00 0.00 0.00 67 1016.5
20260506000305 17 258 6.4 11.3 0.00 0.00 0.00 66 1016.7
20260505235740 18 284 1.6 6.4 0.00 0.00 0.00 66 1016.8
20260505235228 18 264 3.2 4.8 0.00 0.00 0.00 65 1016.8
20260505234755 17 85 1.6 4.8 0.00 0.00 0.00 67 1016.8
20260505234231 17 208 1.6 9.7 0.00 0.00 0.00 68 1016.9
20260505233739 17 46 3.2 9.7 0.00 0.00 0.00 68 1017.2
20260505233227 17 141 3.2 6.4 0.00 0.00 0.00 69 1017.0
20260505232754 17 331 1.6 4.8 0.00 0.00 0.00 69 1017.0
20260505232230 17 266 1.6 4.8 0.00 0.00 0.00 70 1017.0
20260505231758 16 301 1.6 3.2 0.00 0.00 0.00 70 1016.9
20260505231255 16 326 0.0 4.8 0.00 0.00 0.00 70 1017.0
20260505230809 16 295 3.2 4.8 0.00 0.00 0.00 70 1017.0
20260505230226 16 325 1.6 8.0 0.00 0.00 0.00 70 1017.1
20260505225733 16 273 3.2 9.7 0.00 0.00 0.00 71 1017.1
20260505225225 16 107 3.2 6.4 0.00 0.00 0.00 72 1017.1
20260505224733 16 258 1.6 6.4 0.00 0.00 0.00 72 1017.1
20260505224221 16 320 4.8 6.4 0.00 0.00 0.00 72 1017.2
20260505223729 16 269 1.6 6.4 0.00 0.00 0.00 72 1017.2
20260505223237 16 296 1.6 6.4 0.00 0.00 0.00 71 1017.3
20260505222804 16 156 3.2 8.0 0.00 0.00 0.00 73 1017.4
20260505222221 16 269 3.2 6.4 0.00 0.00 0.00 72 1017.4
20260505221729 16 185 1.6 4.8 0.00 0.00 0.00 72 1017.5
20260505221257 16 306 1.6 3.2 0.00 0.00 0.00 73 1017.6
20260505220734 15 348 1.6 4.8 0.00 0.00 0.00 74 1017.5
20260505220222 15 328 3.2 4.8 0.00 0.00 0.00 74 1017.5
20260505215733 15 12 3.2 6.4 0.00 0.00 0.00 74 1017.5
20260505215221 15 257 0.0 8.0 0.00 0.00 0.00 74 1017.5
20260505214729 15 288 6.4 8.0 0.00 0.00 0.00 74 1017.6
20260505214226 15 123 0.0 6.4 0.00 0.00 0.00 74 1017.6
20260505213734 15 285 4.8 6.4 0.00 0.00 0.00 74 1017.5
20260505213222 15 19 1.6 6.4 0.00 0.00 0.00 74 1017.4
20260505212729 15 282 3.2 6.4 0.00 0.00 0.00 74 1017.4
20260505212237 15 283 1.6 6.4 0.00 0.00 0.00 75 1017.5
20260505211725 15 308 1.6 6.4 0.00 0.00 0.00 75 1017.6
20260505211253 15 42 3.2 6.4 0.00 0.00 0.00 75 1017.5
20260505211221 15 42 3.2 6.4 0.00 0.00 0.00 75 1017.5
20260505210809 15 263 0.0 4.8 0.00 0.00 0.00 75 1017.5
20260505210226 15 323 0.0 6.4 0.00 0.00 0.00 76 1017.7
20260505205737 15 256 0.0 6.4 0.00 0.00 0.00 76 1017.7
20260505205305 15 279 1.6 4.8 0.00 0.00 0.00 76 1017.8